When you browse on this site, cookies collect data to enhance your experience and personalize the content and advertising you see.
Visit our Privacy Policy to learn more. By continuing to use the site, you agree to this use of cookies and data.
  • In Hungary
  • List of Countries
  • For 7 days
  • Water Temperature
  • Weather Map
  • News
  • Weather Widgets
  • user-avatar
    Login

    Hourly Weather San Luis

    Today, 19 August, Monday

    Time Temperature Precipitation Wind Pressure Humidity
    00:00 +20°C° 0.6 mm 1 mps 670 mmHg 93%
    01:00 +20°C° 0.6 mm 1 mps 670 mmHg 93%
    02:00 +20°C° 0.5 mm 1 mps 670 mmHg 94%
    03:00 +20°C° 0.5 mm 1 mps 670 mmHg 94%
    04:00 +20°C° 0.5 mm 1 mps 669 mmHg 95%
    05:00 +20°C° 0.1 mm 1 mps 670 mmHg 94%
    06:00 +20°C° 0.1 mm 1 mps 670 mmHg 93%
    07:00 +21°C° 0.1 mm 1 mps 671 mmHg 92%
    08:00 +23°C° 0.1 mm 1 mps 671 mmHg 80%
    09:00 +26°C° 0.1 mm 1 mps 671 mmHg 68%
    10:00 +29°C° 0.1 mm 1 mps 672 mmHg 56%
    11:00 +30°C° 0 mm 1 mps 671 mmHg 51%
    12:00 +31°C° 0 mm 2 mps 671 mmHg 46%
    13:00 +32°C° 0 mm 2 mps 670 mmHg 41%
    14:00 +31°C° 0 mm 2 mps 670 mmHg 43%
    15:00 +31°C° 0 mm 2 mps 669 mmHg 46%
    16:00 +30°C° 0 mm 2 mps 669 mmHg 49%
    17:00 +28°C° 1.2 mm 1 mps 669 mmHg 62%
    18:00 +25°C° 1.2 mm 1 mps 669 mmHg 75%
    19:00 +22°C° 1.2 mm 1 mps 669 mmHg 88%
    20:00 +22°C° 2.1 mm 1 mps 670 mmHg 91%
    21:00 +21°C° 2.1 mm 1 mps 670 mmHg 93%
    22:00 +21°C° 2.1 mm 1 mps 671 mmHg 96%
    23:00 +20°C° 0.1 mm 1 mps 671 mmHg 96%

    Tomorrow, 20 August, Tuesday

    Time Temperature Precipitation Wind Pressure Humidity
    00:00 +20°C° 0.1 mm 1 mps 670 mmHg 95%
    01:00 +20°C° 0.1 mm 1 mps 670 mmHg 95%
    02:00 +19°C° 0 mm 1 mps 670 mmHg 94%
    03:00 +19°C° 0 mm 1 mps 670 mmHg 93%
    04:00 +19°C° 0 mm 1 mps 670 mmHg 92%
    05:00 +19°C° 0 mm 1 mps 670 mmHg 91%
    06:00 +20°C° 0 mm 1 mps 670 mmHg 89%
    07:00 +21°C° 0 mm 1 mps 671 mmHg 87%
    08:00 +23°C° 0 mm 1 mps 671 mmHg 76%
    09:00 +25°C° 0 mm 1 mps 672 mmHg 65%
    10:00 +28°C° 0 mm 1 mps 672 mmHg 54%
    11:00 +29°C° 0 mm 2 mps 672 mmHg 51%
    12:00 +30°C° 0 mm 2 mps 671 mmHg 47%
    13:00 +31°C° 0 mm 2 mps 670 mmHg 44%
    14:00 +31°C° 0 mm 2 mps 670 mmHg 47%
    15:00 +30°C° 0 mm 2 mps 669 mmHg 49%
    16:00 +30°C° 0 mm 2 mps 669 mmHg 52%
    17:00 +27°C° 0.8 mm 1 mps 669 mmHg 63%
    18:00 +25°C° 0.8 mm 1 mps 669 mmHg 74%
    19:00 +22°C° 0.8 mm 1 mps 669 mmHg 85%
    20:00 +22°C° 1.5 mm 1 mps 670 mmHg 88%
    21:00 +21°C° 1.5 mm 1 mps 670 mmHg 90%
    22:00 +21°C° 1.5 mm 1 mps 671 mmHg 93%
    23:00 +20°C° 1.4 mm 1 mps 670 mmHg 94%

    Day after tomorrow, 21 August, Wednesday

    Time Temperature Precipitation Wind Pressure Humidity
    00:00 +20°C° 1.4 mm 1 mps 670 mmHg 95%
    01:00 +20°C° 1.4 mm 1 mps 670 mmHg 97%
    02:00 +20°C° 0.2 mm 1 mps 670 mmHg 96%
    03:00 +19°C° 0.2 mm 1 mps 670 mmHg 96%
    04:00 +19°C° 0.2 mm 1 mps 669 mmHg 96%
    05:00 +20°C° 0 mm 1 mps 670 mmHg 95%
    06:00 +20°C° 0 mm 1 mps 670 mmHg 94%
    07:00 +20°C° 0 mm 1 mps 671 mmHg 93%
    08:00 +23°C° 0 mm 1 mps 672 mmHg 81%
    09:00 +25°C° 0 mm 1 mps 672 mmHg 68%
    10:00 +28°C° 0 mm 2 mps 673 mmHg 55%
    11:00 +29°C° 0 mm 2 mps 672 mmHg 50%
    12:00 +30°C° 0 mm 2 mps 672 mmHg 45%
    13:00 +31°C° 0 mm 2 mps 671 mmHg 39%
    14:00 +31°C° 0 mm 2 mps 671 mmHg 41%
    15:00 +30°C° 0 mm 2 mps 670 mmHg 42%
    16:00 +30°C° 0 mm 1 mps 669 mmHg 43%
    17:00 +27°C° 0 mm 1 mps 669 mmHg 56%
    18:00 +25°C° 0 mm 1 mps 669 mmHg 69%
    19:00 +22°C° 0 mm 1 mps 669 mmHg 81%
    20:00 +21°C° 0.1 mm 1 mps 670 mmHg 84%
    21:00 +21°C° 0.1 mm 1 mps 670 mmHg 86%
    22:00 +20°C° 0.1 mm 1 mps 671 mmHg 89%
    23:00 +20°C° 0.1 mm 1 mps 671 mmHg 90%

    22 August, Thursday

    Time Temperature Precipitation Wind Pressure Humidity
    00:00 +19°C° 0.1 mm 1 mps 670 mmHg 91%
    01:00 +19°C° 0.1 mm 1 mps 670 mmHg 92%
    02:00 +19°C° 0 mm 1 mps 670 mmHg 91%
    03:00 +19°C° 0 mm 1 mps 670 mmHg 91%
    04:00 +19°C° 0 mm 1 mps 670 mmHg 90%
    05:00 +20°C° 0 mm 1 mps 671 mmHg 88%
    06:00 +20°C° 0 mm 1 mps 671 mmHg 86%
    07:00 +19°C° 0 mm 0 mps 672 mmHg 84%
    08:00 +23°C° 0 mm 1 mps 672 mmHg 75%
    09:00 +26°C° 0 mm 1 mps 672 mmHg 65%
    10:00 +28°C° 0 mm 1 mps 673 mmHg 56%
    11:00 +29°C° 0 mm 1 mps 672 mmHg 51%
    12:00 +30°C° 0 mm 2 mps 672 mmHg 45%
    13:00 +31°C° 0 mm 2 mps 671 mmHg 40%
    14:00 +31°C° 0 mm 2 mps 670 mmHg 41%
    15:00 +31°C° 0 mm 1 mps 670 mmHg 42%
    16:00 +30°C° 0 mm 1 mps 669 mmHg 44%
    17:00 +28°C° 0 mm 1 mps 669 mmHg 55%
    18:00 +25°C° 0 mm 1 mps 669 mmHg 66%
    19:00 +22°C° 0 mm 1 mps 670 mmHg 77%
    20:00 +22°C° 0 mm 1 mps 670 mmHg 78%
    21:00 +22°C° 0 mm 1 mps 671 mmHg 79%
    22:00 +21°C° 0 mm 1 mps 671 mmHg 80%
    23:00 +21°C° 0.1 mm 1 mps 671 mmHg 81%

    23 August, Friday

    Time Temperature Precipitation Wind Pressure Humidity
    00:00 +20°C° 0.1 mm 1 mps 671 mmHg 83%
    01:00 +20°C° 0.1 mm 1 mps 670 mmHg 84%
    02:00 +20°C° 0.3 mm 1 mps 670 mmHg 85%
    03:00 +19°C° 0.3 mm 1 mps 670 mmHg 87%
    04:00 +19°C° 0.3 mm 1 mps 670 mmHg 88%
    05:00 +20°C° 0 mm 1 mps 670 mmHg 87%
    06:00 +20°C° 0 mm 1 mps 671 mmHg 85%
    07:00 +21°C° 0 mm 1 mps 671 mmHg 84%
    08:00 +24°C° 0 mm 1 mps 672 mmHg 73%
    09:00 +26°C° 0 mm 1 mps 672 mmHg 63%
    10:00 +29°C° 0 mm 1 mps 673 mmHg 53%
    11:00 +30°C° 0 mm 2 mps 672 mmHg 48%
    12:00 +31°C° 0 mm 2 mps 671 mmHg 44%
    13:00 +32°C° 0 mm 2 mps 671 mmHg 40%
    14:00 +31°C° 0 mm 2 mps 670 mmHg 41%
    15:00 +31°C° 0 mm 2 mps 670 mmHg 42%
    16:00 +31°C° 0 mm 1 mps 669 mmHg 42%
    17:00 +28°C° 0 mm 1 mps 669 mmHg 53%
    18:00 +26°C° 0 mm 1 mps 669 mmHg 65%
    19:00 +23°C° 0 mm 1 mps 669 mmHg 76%
    20:00 +22°C° 0.7 mm 1 mps 670 mmHg 81%
    21:00 +21°C° 0.7 mm 1 mps 670 mmHg 86%
    22:00 +20°C° 0.7 mm 1 mps 670 mmHg 91%
    23:00 +20°C° 1.3 mm 1 mps 670 mmHg 93%

    24 August, Saturday

    Time Temperature Precipitation Wind Pressure Humidity
    00:00 +20°C° 1.3 mm 1 mps 670 mmHg 94%
    01:00 +20°C° 1.3 mm 1 mps 670 mmHg 95%
    02:00 +20°C° 0.3 mm 1 mps 670 mmHg 94%
    03:00 +20°C° 0.3 mm 1 mps 670 mmHg 94%
    04:00 +20°C° 0.3 mm 1 mps 670 mmHg 93%
    05:00 +19°C° 0.1 mm 0 mps 671 mmHg 93%
    06:00 +19°C° 0.1 mm 0 mps 671 mmHg 92%
    07:00 +19°C° 0.1 mm 0 mps 671 mmHg 91%
    08:00 +24°C° 0 mm 1 mps 672 mmHg 80%
    09:00 +26°C° 0 mm 1 mps 672 mmHg 69%
    10:00 +28°C° 0 mm 1 mps 673 mmHg 58%
    11:00 +29°C° 0.2 mm 1 mps 672 mmHg 55%
    12:00 +30°C° 0.2 mm 1 mps 671 mmHg 51%
    13:00 +31°C° 0.2 mm 1 mps 671 mmHg 48%
    14:00 +31°C° 0.2 mm 1 mps 670 mmHg 49%
    15:00 +30°C° 0.2 mm 1 mps 670 mmHg 50%
    16:00 +30°C° 0.2 mm 1 mps 669 mmHg 51%
    17:00 +28°C° 0.5 mm 1 mps 669 mmHg 62%
    18:00 +25°C° 0.5 mm 1 mps 669 mmHg 73%
    19:00 +23°C° 0.5 mm 1 mps 669 mmHg 84%
    20:00 +22°C° 1.8 mm 1 mps 670 mmHg 88%
    21:00 +21°C° 1.8 mm 1 mps 670 mmHg 92%
    22:00 +20°C° 1.8 mm 1 mps 670 mmHg 96%
    23:00 +20°C° 1.8 mm 1 mps 670 mmHg 96%
    Show more